| time (UTC) | temp F | wind direction | speed knots | gust knots | rain 1hr in | rain 24hr in | rain mn in | humidity % | barometer mb |
| 20260506001556 | 64 | 91 | 0.0 | 0.0 | 0.00 | 0.00 | 0.00 | 62 | 1012.3 |
| 20260506001057 | 65 | 91 | 0.0 | 0.0 | 0.00 | 0.00 | 0.00 | 62 | 1012.5 |
| 20260506000555 | 65 | 88 | 0.0 | 0.0 | 0.00 | 0.00 | 0.00 | 59 | 1012.5 |
| 20260506000058 | 64 | 88 | 0.0 | 0.0 | 0.00 | 0.00 | 0.00 | 55 | 1012.5 |
| 20260505235555 | 64 | 88 | 0.0 | 0.0 | 0.00 | 0.00 | 0.00 | 55 | 1012.5 |
| 20260505235055 | 64 | 107 | 0.0 | 0.0 | 0.00 | 0.00 | 0.00 | 58 | 1012.2 |
| 20260505234557 | 64 | 107 | 0.0 | 0.0 | 0.00 | 0.00 | 0.00 | 58 | 1011.9 |
| 20260505234055 | 63 | 107 | 0.0 | 0.0 | 0.00 | 0.00 | 0.00 | 59 | 1011.8 |
| 20260505233554 | 63 | 117 | 0.0 | 0.9 | 0.00 | 0.00 | 0.00 | 62 | 1011.7 |
| 20260505233054 | 63 | 117 | 0.0 | 1.7 | 0.00 | 0.00 | 0.00 | 65 | 1011.7 |
| 20260505232553 | 64 | 96 | 0.0 | 1.7 | 0.00 | 0.00 | 0.00 | 65 | 1011.7 |
| 20260505232058 | 64 | 163 | 0.0 | 1.7 | 0.00 | 0.00 | 0.00 | 60 | 1011.8 |
| 20260505231552 | 65 | 194 | 0.0 | 0.9 | 0.00 | 0.00 | 0.00 | 58 | 1012.0 |
| 20260505231054 | 65 | 194 | 0.0 | 0.9 | 0.00 | 0.00 | 0.00 | 56 | 1012.0 |
| 20260505230551 | 66 | 194 | 0.0 | 0.9 | 0.00 | 0.00 | 0.00 | 52 | 1012.2 |
| 20260505225551 | 66 | 150 | 0.0 | 0.9 | 0.00 | 0.00 | 0.00 | 52 | 1012.1 |
| 20260505225051 | 67 | 150 | 0.0 | 0.9 | 0.00 | 0.00 | 0.00 | 50 | 1012.0 |
| 20260505224551 | 68 | 117 | 0.0 | 0.0 | 0.00 | 0.00 | 0.00 | 46 | 1012.2 |
| 20260505224050 | 68 | 114 | 0.0 | 0.0 | 0.00 | 0.00 | 0.00 | 44 | 1012.4 |
| 20260505223553 | 68 | 114 | 0.0 | 0.9 | 0.00 | 0.00 | 0.00 | 43 | 1012.5 |
| 20260505223059 | 68 | 114 | 0.0 | 0.9 | 0.00 | 0.00 | 0.00 | 42 | 1012.5 |
| 20260505222550 | 69 | 51 | 0.0 | 0.9 | 0.00 | 0.00 | 0.00 | 41 | 1012.7 |
| 20260505222050 | 69 | 211 | 0.0 | 0.0 | 0.00 | 0.00 | 0.00 | 41 | 1012.8 |
| 20260505221549 | 69 | 201 | 0.0 | 2.6 | 0.00 | 0.00 | 0.00 | 40 | 1012.7 |
| 20260505221054 | 69 | 202 | 0.0 | 2.6 | 0.00 | 0.00 | 0.00 | 39 | 1012.7 |
| 20260505220549 | 69 | 264 | 0.0 | 0.9 | 0.00 | 0.00 | 0.00 | 39 | 1012.5 |
| 20260505220049 | 70 | 269 | 0.0 | 0.9 | 0.00 | 0.00 | 0.00 | 39 | 1012.4 |
| 20260505215549 | 70 | 248 | 0.0 | 1.7 | 0.00 | 0.00 | 0.00 | 40 | 1012.5 |
| 20260505215049 | 70 | 200 | 0.0 | 1.7 | 0.00 | 0.00 | 0.00 | 39 | 1012.5 |
| 20260505214549 | 70 | 269 | 0.9 | 1.7 | 0.00 | 0.00 | 0.00 | 38 | 1012.4 |
| 20260505214051 | 71 | 263 | 0.0 | 1.7 | 0.00 | 0.00 | 0.00 | 38 | 1012.3 |
| 20260505213550 | 71 | 236 | 0.0 | 2.6 | 0.00 | 0.00 | 0.00 | 37 | 1012.1 |
| 20260505213056 | 71 | 260 | 0.0 | 2.6 | 0.00 | 0.00 | 0.00 | 38 | 1011.9 |
| 20260505212547 | 71 | 267 | 0.0 | 2.6 | 0.00 | 0.00 | 0.00 | 37 | 1012.0 |
| 20260505212047 | 72 | 258 | 0.0 | 2.6 | 0.00 | 0.00 | 0.00 | 36 | 1012.1 |
| 20260505211549 | 72 | 112 | 0.0 | 1.7 | 0.00 | 0.00 | 0.00 | 36 | 1012.1 |
| 20260505211047 | 72 | 211 | 0.0 | 4.3 | 0.00 | 0.00 | 0.00 | 39 | 1012.1 |
| 20260505210547 | 72 | 200 | 0.0 | 4.3 | 0.00 | 0.00 | 0.00 | 39 | 1012.1 |
| 20260505210047 | 72 | 163 | 0.0 | 1.7 | 0.00 | 0.00 | 0.00 | 38 | 1012.1 |
| 20260505205547 | 73 | 343 | 0.9 | 1.7 | 0.00 | 0.00 | 0.00 | 41 | 1012.0 |
| 20260505205048 | 73 | 201 | 0.0 | 1.7 | 0.00 | 0.00 | 0.00 | 38 | 1012.1 |
| 20260505204546 | 73 | 191 | 0.0 | 1.7 | 0.00 | 0.00 | 0.00 | 41 | 1012.2 |
| 20260505204045 | 73 | 21 | 0.0 | 1.7 | 0.00 | 0.00 | 0.00 | 43 | 1012.2 |
| 20260505203545 | 73 | 205 | 0.0 | 1.7 | 0.00 | 0.00 | 0.00 | 42 | 1012.2 |
| 20260505203051 | 73 | 276 | 0.0 | 7.0 | 0.00 | 0.00 | 0.00 | 41 | 1012.1 |
| 20260505202544 | 73 | 261 | 0.0 | 7.0 | 0.00 | 0.00 | 0.00 | 42 | 1012.0 |
| 20260505202045 | 73 | 100 | 0.0 | 1.7 | 0.00 | 0.00 | 0.00 | 41 | 1012.0 |
| 20260505201544 | 72 | 67 | 0.0 | 1.7 | 0.00 | 0.00 | 0.00 | 40 | 1012.0 |
| 20260505201042 | 72 | 252 | 0.0 | 2.6 | 0.00 | 0.00 | 0.00 | 39 | 1012.3 |
| 20260505200542 | 72 | 265 | 0.9 | 2.6 | 0.00 | 0.00 | 0.00 | 39 | 1012.4 |
| 20260505200041 | 72 | 263 | 0.0 | 2.6 | 0.00 | 0.00 | 0.00 | 38 | 1012.5 |
| 20260505195544 | 72 | 207 | 0.0 | 2.6 | 0.00 | 0.00 | 0.00 | 37 | 1012.5 |
| 20260505195040 | 72 | 248 | 0.9 | 2.6 | 0.00 | 0.00 | 0.00 | 36 | 1012.4 |
| 20260505194545 | 72 | 197 | 0.0 | 2.6 | 0.00 | 0.00 | 0.00 | 39 | 1012.5 |
| 20260505194039 | 72 | 236 | 0.0 | 2.6 | 0.00 | 0.00 | 0.00 | 40 | 1012.6 |
| 20260505193538 | 72 | 243 | 0.0 | 2.6 | 0.00 | 0.00 | 0.00 | 42 | 1012.7 |
| 20260505193039 | 72 | 280 | 0.0 | 1.7 | 0.00 | 0.00 | 0.00 | 43 | 1012.7 |
| 20260505192536 | 71 | 229 | 0.0 | 4.3 | 0.00 | 0.00 | 0.00 | 43 | 1012.8 |
| 20260505192037 | 71 | 327 | 0.9 | 5.2 | 0.00 | 0.00 | 0.00 | 43 | 1012.8 |
| 20260505191535 | 71 | 125 | 0.9 | 4.3 | 0.00 | 0.00 | 0.00 | 43 | 1013.0 |
| 20260505191038 | 72 | 191 | 0.0 | 2.6 | 0.00 | 0.00 | 0.00 | 42 | 1013.2 |
| 20260505190535 | 72 | 119 | 0.0 | 5.2 | 0.00 | 0.00 | 0.00 | 43 | 1013.3 |
| 20260505190032 | 72 | 100 | 1.7 | 5.2 | 0.00 | 0.00 | 0.00 | 42 | 1013.3 |
| 20260505185533 | 72 | 271 | 0.0 | 2.6 | 0.00 | 0.00 | 0.00 | 43 | 1013.4 |
| 20260505185032 | 72 | 284 | 0.9 | 2.6 | 0.00 | 0.00 | 0.00 | 42 | 1013.4 |
| 20260505184531 | 72 | 275 | 0.0 | 2.6 | 0.00 | 0.00 | 0.00 | 41 | 1013.4 |
| 20260505184031 | 72 | 266 | 0.0 | 2.6 | 0.00 | 0.00 | 0.00 | 42 | 1013.5 |
| 20260505183530 | 72 | 250 | 0.0 | 1.7 | 0.00 | 0.00 | 0.00 | 39 | 1013.5 |
| 20260505183030 | 72 | 163 | 0.0 | 1.7 | 0.00 | 0.00 | 0.00 | 39 | 1013.5 |
| 20260505182530 | 72 | 43 | 0.0 | 2.6 | 0.00 | 0.00 | 0.00 | 37 | 1013.6 |
| 20260505182033 | 72 | 275 | 0.0 | 2.6 | 0.00 | 0.00 | 0.00 | 38 | 1013.7 |
| 20260505181527 | 71 | 244 | 0.0 | 3.5 | 0.00 | 0.00 | 0.00 | 39 | 1013.8 |
| 20260505181027 | 71 | 255 | 0.9 | 3.5 | 0.00 | 0.00 | 0.00 | 37 | 1013.9 |
| 20260505180526 | 71 | 277 | 0.9 | 2.6 | 0.00 | 0.00 | 0.00 | 38 | 1013.9 |
| 20260505180026 | 71 | 254 | 0.0 | 1.7 | 0.00 | 0.00 | 0.00 | 39 | 1014.1 |
| 20260505175525 | 71 | 263 | 0.0 | 2.6 | 0.00 | 0.00 | 0.00 | 39 | 1014.1 |
| 20260505175024 | 70 | 271 | 0.0 | 2.6 | 0.00 | 0.00 | 0.00 | 39 | 1014.1 |
| 20260505174524 | 70 | 245 | 0.9 | 7.0 | 0.00 | 0.00 | 0.00 | 39 | 1014.3 |
| 20260505174025 | 70 | 238 | 0.0 | 7.0 | 0.00 | 0.00 | 0.00 | 38 | 1014.3 |
| 20260505173523 | 70 | 259 | 1.7 | 3.5 | 0.00 | 0.00 | 0.00 | 38 | 1014.5 |
| 20260505173037 | 70 | 248 | 0.9 | 3.5 | 0.00 | 0.00 | 0.00 | 37 | 1014.5 |
| 20260505172523 | 70 | 281 | 0.0 | 2.6 | 0.00 | 0.00 | 0.00 | 39 | 1014.6 |
| 20260505172023 | 70 | 285 | 0.0 | 2.6 | 0.00 | 0.00 | 0.00 | 38 | 1014.6 |
| 20260505171523 | 70 | 252 | 0.0 | 3.5 | 0.00 | 0.00 | 0.00 | 39 | 1014.7 |
| 20260505171024 | 70 | 311 | 0.9 | 3.5 | 0.00 | 0.00 | 0.00 | 38 | 1014.6 |
| 20260505170522 | 70 | 240 | 0.0 | 1.7 | 0.00 | 0.00 | 0.00 | 37 | 1014.6 |
| 20260505170026 | 70 | 286 | 0.0 | 2.6 | 0.00 | 0.00 | 0.00 | 39 | 1014.5 |
| 20260505165519 | 69 | 283 | 0.0 | 2.6 | 0.00 | 0.00 | 0.00 | 38 | 1014.6 |
| 20260505165019 | 69 | 286 | 0.0 | 2.6 | 0.00 | 0.00 | 0.00 | 39 | 1014.5 |
| 20260505164540 | 69 | 245 | 0.0 | 1.7 | 0.00 | 0.00 | 0.00 | 37 | 1014.7 |
| 20260505164018 | 69 | 244 | 0.0 | 3.5 | 0.00 | 0.00 | 0.00 | 43 | 1014.9 |
| 20260505163517 | 68 | 258 | 0.9 | 3.5 | 0.00 | 0.00 | 0.00 | 44 | 1014.9 |
| 20260505163017 | 68 | 288 | 1.7 | 3.5 | 0.00 | 0.00 | 0.00 | 45 | 1014.8 |
| 20260505162515 | 69 | 246 | 0.9 | 2.6 | 0.00 | 0.00 | 0.00 | 48 | 1015.0 |
| 20260505162015 | 68 | 281 | 0.9 | 2.6 | 0.00 | 0.00 | 0.00 | 48 | 1015.0 |
| 20260505161514 | 68 | 253 | 0.0 | 1.7 | 0.00 | 0.00 | 0.00 | 48 | 1015.0 |
| 20260505161014 | 67 | 65 | 0.0 | 2.6 | 0.00 | 0.00 | 0.00 | 52 | 1014.9 |
| 20260505160512 | 67 | 65 | 0.0 | 2.6 | 0.00 | 0.00 | 0.00 | 52 | 1014.9 |
| 20260505153011 | 66 | 234 | 0.0 | 4.3 | 0.00 | 0.00 | 0.00 | 49 | 1015.0 |
| 20260505152511 | 66 | 241 | 0.9 | 4.3 | 0.00 | 0.00 | 0.00 | 48 | 1015.1 |
| 20260505152009 | 66 | 256 | 0.9 | 3.5 | 0.00 | 0.00 | 0.00 | 48 | 1015.1 |
| 20260505151511 | 66 | 279 | 0.9 | 3.5 | 0.00 | 0.00 | 0.00 | 48 | 1015.2 |
| 20260505151009 | 66 | 259 | 0.9 | 2.6 | 0.00 | 0.00 | 0.00 | 48 | 1015.3 |
| 20260505150508 | 66 | 254 | 0.0 | 2.6 | 0.00 | 0.00 | 0.00 | 49 | 1015.3 |
| 20260505140504 | 66 | 5 | 0.0 | 0.0 | 0.00 | 0.00 | 0.00 | 55 | 1015.0 |
| 20260505124552 | 58 | 113 | 0.0 | 0.0 | 0.00 | 0.00 | 0.00 | 68 | 1014.4 |
| 20260505124052 | 57 | 113 | 0.0 | 0.0 | 0.00 | 0.00 | 0.00 | 69 | 1014.4 |
| 20260505123551 | 57 | 113 | 0.0 | 0.0 | 0.00 | 0.00 | 0.00 | 65 | 1014.4 |
| 20260505123057 | 56 | 113 | 0.0 | 0.0 | 0.00 | 0.00 | 0.00 | 65 | 1014.4 |
| 20260505122554 | 56 | 113 | 0.0 | 0.0 | 0.00 | 0.00 | 0.00 | 65 | 1014.4 |
| 20260505122050 | 55 | 113 | 0.0 | 0.0 | 0.00 | 0.00 | 0.00 | 66 | 1014.3 |
| 20260505121550 | 55 | 113 | 0.0 | 0.0 | 0.00 | 0.00 | 0.00 | 66 | 1014.3 |
| 20260505121050 | 55 | 113 | 0.0 | 0.0 | 0.00 | 0.00 | 0.00 | 68 | 1014.2 |
| 20260505120550 | 55 | 113 | 0.0 | 0.0 | 0.00 | 0.00 | 0.00 | 68 | 1014.3 |
| 20260505120049 | 55 | 115 | 0.0 | 0.0 | 0.00 | 0.00 | 0.00 | 68 | 1014.3 |
| 20260505115553 | 55 | 115 | 0.0 | 0.0 | 0.00 | 0.00 | 0.00 | 67 | 1014.3 |
| 20260505115049 | 55 | 115 | 0.0 | 0.0 | 0.00 | 0.00 | 0.00 | 67 | 1014.2 |
| 20260505114549 | 55 | 115 | 0.0 | 0.0 | 0.00 | 0.00 | 0.00 | 67 | 1014.2 |
| 20260505114049 | 55 | 116 | 0.0 | 0.0 | 0.00 | 0.00 | 0.00 | 66 | 1014.1 |
| 20260505113551 | 55 | 115 | 0.0 | 0.0 | 0.00 | 0.00 | 0.00 | 67 | 1013.9 |
| 20260505113047 | 54 | 115 | 0.0 | 0.0 | 0.00 | 0.00 | 0.00 | 67 | 1013.9 |
| 20260505112548 | 54 | 114 | 0.0 | 0.0 | 0.00 | 0.00 | 0.00 | 67 | 1013.8 |
| 20260505112048 | 54 | 114 | 0.0 | 1.7 | 0.00 | 0.00 | 0.00 | 67 | 1013.8 |
| 20260505111553 | 54 | 113 | 0.0 | 1.7 | 0.00 | 0.00 | 0.00 | 66 | 1013.8 |
| 20260505111048 | 54 | 115 | 0.0 | 0.0 | 0.00 | 0.00 | 0.00 | 66 | 1013.8 |
| 20260505110547 | 54 | 114 | 0.0 | 0.0 | 0.00 | 0.00 | 0.00 | 67 | 1013.8 |
| 20260505102039 | 57 | 313 | 0.0 | 0.0 | 0.00 | 0.00 | 0.00 | 60 | 1013.6 |
| 20260505101539 | 57 | 314 | 0.0 | 0.0 | 0.00 | 0.00 | 0.00 | 61 | 1013.7 |
| 20260505101042 | 57 | 315 | 0.0 | 0.0 | 0.00 | 0.00 | 0.00 | 61 | 1013.7 |
| 20260505100540 | 56 | 328 | 0.0 | 0.9 | 0.00 | 0.00 | 0.00 | 62 | 1013.7 |
| 20260505100048 | 56 | 328 | 0.0 | 0.9 | 0.00 | 0.00 | 0.00 | 63 | 1013.7 |
| 20260505095541 | 56 | 117 | 0.0 | 0.0 | 0.00 | 0.00 | 0.00 | 64 | 1013.7 |
| 20260505095036 | 57 | 110 | 0.0 | 0.0 | 0.00 | 0.00 | 0.00 | 63 | 1013.7 |
| 20260505094536 | 57 | 105 | 0.0 | 1.7 | 0.00 | 0.00 | 0.00 | 64 | 1013.7 |
| 20260505094034 | 57 | 105 | 0.0 | 1.7 | 0.00 | 0.00 | 0.00 | 61 | 1013.8 |
| 20260505093532 | 58 | 82 | 0.0 | 0.0 | 0.00 | 0.00 | 0.00 | 62 | 1013.9 |
| 20260505093033 | 58 | 74 | 0.0 | 0.0 | 0.00 | 0.00 | 0.00 | 58 | 1013.8 |
| 20260505092532 | 58 | 53 | 0.0 | 0.0 | 0.00 | 0.00 | 0.00 | 59 | 1013.8 |
| 20260505092031 | 58 | 53 | 0.0 | 0.0 | 0.00 | 0.00 | 0.00 | 58 | 1013.8 |
| 20260505091543 | 58 | 53 | 0.0 | 0.0 | 0.00 | 0.00 | 0.00 | 57 | 1013.9 |
| 20260505091030 | 58 | 39 | 0.0 | 0.0 | 0.00 | 0.00 | 0.00 | 58 | 1013.9 |
| 20260505090530 | 58 | 39 | 0.0 | 0.0 | 0.00 | 0.00 | 0.00 | 57 | 1014.0 |
| 20260505090048 | 58 | 55 | 0.0 | 0.0 | 0.00 | 0.00 | 0.00 | 57 | 1014.0 |
| 20260505085532 | 58 | 55 | 0.0 | 0.0 | 0.00 | 0.00 | 0.00 | 58 | 1014.0 |
| 20260505085030 | 58 | 55 | 0.0 | 0.0 | 0.00 | 0.00 | 0.00 | 58 | 1013.9 |
| 20260505084536 | 58 | 55 | 0.0 | 0.0 | 0.00 | 0.00 | 0.00 | 58 | 1014.0 |
| 20260505084029 | 58 | 55 | 0.0 | 0.0 | 0.00 | 0.00 | 0.00 | 58 | 1014.0 |
| 20260505083528 | 58 | 55 | 0.0 | 0.0 | 0.00 | 0.00 | 0.00 | 59 | 1014.0 |
| 20260505083038 | 58 | 55 | 0.0 | 0.0 | 0.00 | 0.00 | 0.00 | 58 | 1014.0 |
| 20260505082528 | 58 | 55 | 0.0 | 0.0 | 0.00 | 0.00 | 0.00 | 58 | 1014.0 |
| 20260505082032 | 58 | 55 | 0.0 | 0.0 | 0.00 | 0.00 | 0.00 | 58 | 1014.1 |
| 20260505081543 | 58 | 55 | 0.0 | 0.0 | 0.00 | 0.00 | 0.00 | 57 | 1014.0 |
| 20260505081027 | 59 | 55 | 0.0 | 0.0 | 0.00 | 0.00 | 0.00 | 57 | 1014.1 |
| 20260505080532 | 59 | 55 | 0.0 | 0.0 | 0.00 | 0.00 | 0.00 | 57 | 1014.1 |
| 20260505080039 | 59 | 55 | 0.0 | 0.0 | 0.00 | 0.00 | 0.00 | 57 | 1014.1 |
| 20260505075527 | 59 | 55 | 0.0 | 0.0 | 0.00 | 0.00 | 0.00 | 57 | 1014.1 |
| 20260505075027 | 58 | 55 | 0.0 | 0.0 | 0.00 | 0.00 | 0.00 | 57 | 1014.2 |
| 20260505074527 | 58 | 55 | 0.0 | 0.0 | 0.00 | 0.00 | 0.00 | 57 | 1014.2 |
| 20260505074027 | 58 | 55 | 0.0 | 0.0 | 0.00 | 0.00 | 0.00 | 57 | 1014.1 |
| 20260505073529 | 59 | 55 | 0.0 | 0.0 | 0.00 | 0.00 | 0.00 | 57 | 1014.1 |
| 20260505073026 | 59 | 55 | 0.0 | 0.0 | 0.00 | 0.00 | 0.00 | 57 | 1014.2 |
| 20260505072525 | 59 | 55 | 0.0 | 0.0 | 0.00 | 0.00 | 0.00 | 56 | 1014.2 |
| 20260505072027 | 59 | 55 | 0.0 | 0.0 | 0.00 | 0.00 | 0.00 | 56 | 1014.2 |
| 20260505071529 | 58 | 55 | 0.0 | 0.0 | 0.00 | 0.00 | 0.00 | 56 | 1014.3 |
| 20260505071025 | 58 | 55 | 0.0 | 0.0 | 0.00 | 0.00 | 0.00 | 56 | 1014.2 |
| 20260505070525 | 58 | 55 | 0.0 | 0.0 | 0.00 | 0.00 | 0.00 | 57 | 1014.2 |
| 20260505070027 | 58 | 55 | 0.0 | 0.0 | 0.00 | 0.00 | 0.00 | 57 | 1014.3 |
| 20260505065524 | 58 | 55 | 0.0 | 0.0 | 0.00 | 0.00 | 0.00 | 57 | 1014.2 |
| 20260505065024 | 58 | 55 | 0.0 | 0.0 | 0.00 | 0.00 | 0.00 | 57 | 1014.1 |
| 20260505064524 | 58 | 55 | 0.0 | 0.0 | 0.00 | 0.00 | 0.00 | 57 | 1014.1 |
| 20260505064026 | 58 | 55 | 0.0 | 0.0 | 0.00 | 0.00 | 0.00 | 57 | 1014.1 |
| 20260505063523 | 59 | 55 | 0.0 | 0.0 | 0.00 | 0.00 | 0.00 | 59 | 1014.1 |
| 20260505063033 | 59 | 55 | 0.0 | 0.0 | 0.00 | 0.00 | 0.00 | 59 | 1014.1 |
| 20260505062522 | 59 | 45 | 0.0 | 0.9 | 0.00 | 0.00 | 0.00 | 59 | 1014.1 |
| 20260505062021 | 59 | 62 | 0.0 | 0.9 | 0.00 | 0.00 | 0.00 | 58 | 1014.1 |
| 20260505061529 | 59 | 300 | 0.0 | 0.9 | 0.00 | 0.00 | 0.00 | 58 | 1014.3 |
| 20260505061021 | 59 | 71 | 0.0 | 1.7 | 0.00 | 0.00 | 0.00 | 58 | 1014.3 |
| 20260505060521 | 59 | 71 | 0.0 | 1.7 | 0.00 | 0.00 | 0.00 | 58 | 1014.4 |
| 20260505060021 | 59 | 109 | 0.0 | 0.9 | 0.00 | 0.00 | 0.00 | 58 | 1014.3 |
| 20260505055520 | 58 | 182 | 0.0 | 0.9 | 0.00 | 0.00 | 0.00 | 59 | 1014.3 |
| 20260505055020 | 58 | 184 | 0.0 | 0.9 | 0.00 | 0.00 | 0.00 | 59 | 1014.4 |
| 20260505054524 | 59 | 200 | 0.0 | 0.9 | 0.00 | 0.00 | 0.00 | 59 | 1014.4 |
| 20260505054020 | 58 | 258 | 0.0 | 0.9 | 0.00 | 0.00 | 0.00 | 59 | 1014.4 |
| 20260505053520 | 58 | 101 | 0.0 | 0.0 | 0.00 | 0.00 | 0.00 | 58 | 1014.4 |
| 20260505053019 | 58 | 101 | 0.0 | 0.0 | 0.00 | 0.00 | 0.00 | 58 | 1014.5 |
| 20260505052518 | 58 | 101 | 0.0 | 1.7 | 0.00 | 0.00 | 0.00 | 60 | 1014.5 |
| 20260505052019 | 58 | 101 | 0.0 | 1.7 | 0.00 | 0.00 | 0.00 | 60 | 1014.5 |
| 20260505051520 | 58 | 109 | 0.0 | 0.0 | 0.00 | 0.00 | 0.00 | 60 | 1014.5 |
| 20260505051019 | 58 | 109 | 0.0 | 1.7 | 0.00 | 0.00 | 0.00 | 59 | 1014.5 |
| 20260505050517 | 58 | 109 | 0.0 | 1.7 | 0.00 | 0.00 | 0.00 | 59 | 1014.4 |
| 20260505041506 | 62 | 200 | 0.0 | 0.0 | 0.00 | 0.00 | 0.00 | 49 | 1014.4 |
| 20260505041005 | 63 | 200 | 0.0 | 0.9 | 0.00 | 0.00 | 0.00 | 49 | 1014.4 |
| 20260505040505 | 63 | 198 | 0.0 | 1.7 | 0.00 | 0.00 | 0.00 | 48 | 1014.4 |
| 20260505040004 | 63 | 156 | 0.0 | 1.7 | 0.00 | 0.00 | 0.00 | 48 | 1014.4 |
| 20260505035503 | 63 | 211 | 0.0 | 0.9 | 0.00 | 0.00 | 0.00 | 47 | 1014.4 |
| 20260505035003 | 63 | 161 | 0.0 | 0.9 | 0.00 | 0.00 | 0.00 | 48 | 1014.4 |
| 20260505034503 | 63 | 199 | 0.0 | 0.0 | 0.00 | 0.00 | 0.00 | 48 | 1014.5 |
| 20260505034003 | 63 | 205 | 0.0 | 0.0 | 0.00 | 0.00 | 0.00 | 50 | 1014.5 |
| 20260505033506 | 63 | 209 | 0.0 | 0.9 | 0.00 | 0.00 | 0.00 | 50 | 1014.5 |
| 20260505033003 | 63 | 200 | 0.0 | 0.9 | 0.00 | 0.00 | 0.00 | 51 | 1014.6 |
| 20260505032503 | 63 | 200 | 0.0 | 0.9 | 0.00 | 0.00 | 0.00 | 52 | 1014.6 |
| 20260505032003 | 62 | 200 | 0.0 | 0.9 | 0.00 | 0.00 | 0.00 | 52 | 1014.6 |
| 20260505031502 | 63 | 233 | 0.0 | 0.9 | 0.00 | 0.00 | 0.00 | 52 | 1014.7 |
| 20260505031002 | 62 | 202 | 0.0 | 0.9 | 0.00 | 0.00 | 0.00 | 53 | 1014.7 |
| 20260505030502 | 63 | 202 | 0.0 | 0.9 | 0.00 | 0.00 | 0.00 | 52 | 1014.7 |
| 20260505030002 | 63 | 202 | 0.0 | 0.9 | 0.00 | 0.00 | 0.00 | 52 | 1014.6 |
| 20260505025502 | 64 | 202 | 0.0 | 0.9 | 0.00 | 0.00 | 0.00 | 51 | 1014.6 |
| 20260505025002 | 64 | 202 | 0.0 | 0.9 | 0.00 | 0.00 | 0.00 | 51 | 1014.7 |
| 20260505024506 | 64 | 203 | 0.0 | 0.9 | 0.00 | 0.00 | 0.00 | 51 | 1014.6 |
| 20260505024001 | 64 | 208 | 0.0 | 0.9 | 0.00 | 0.00 | 0.00 | 51 | 1014.7 |
| 20260505023501 | 64 | 217 | 0.0 | 0.9 | 0.00 | 0.00 | 0.00 | 52 | 1014.7 |
| 20260505023001 | 64 | 221 | 0.0 | 0.9 | 0.00 | 0.00 | 0.00 | 52 | 1014.6 |
| 20260505022501 | 64 | 227 | 0.0 | 0.0 | 0.00 | 0.00 | 0.00 | 53 | 1014.6 |
| 20260505022001 | 64 | 233 | 0.0 | 0.0 | 0.00 | 0.00 | 0.00 | 52 | 1014.6 |
| 20260505021504 | 63 | 244 | 0.0 | 0.0 | 0.00 | 0.00 | 0.00 | 53 | 1014.5 |
| 20260505021100 | 63 | 244 | 0.0 | 0.0 | 0.00 | 0.00 | 0.00 | 53 | 1014.5 |
| 20260505020600 | 63 | 247 | 0.0 | 0.0 | 0.00 | 0.00 | 0.00 | 54 | 1014.5 |
| 20260505015600 | 63 | 247 | 0.0 | 0.0 | 0.00 | 0.00 | 0.00 | 54 | 1014.5 |
| 20260505015100 | 63 | 247 | 0.0 | 0.0 | 0.00 | 0.00 | 0.00 | 53 | 1014.5 |
| 20260505014600 | 63 | 247 | 0.0 | 0.0 | 0.00 | 0.00 | 0.00 | 53 | 1014.4 |
| 20260505014100 | 63 | 247 | 0.0 | 0.0 | 0.00 | 0.00 | 0.00 | 53 | 1014.3 |
| 20260505013602 | 64 | 248 | 0.0 | 0.0 | 0.00 | 0.00 | 0.00 | 52 | 1014.3 |
| 20260505013101 | 64 | 248 | 0.0 | 0.0 | 0.00 | 0.00 | 0.00 | 52 | 1014.2 |
| 20260505012559 | 64 | 252 | 0.0 | 0.0 | 0.00 | 0.00 | 0.00 | 51 | 1014.2 |
| 20260505012102 | 64 | 252 | 0.0 | 0.0 | 0.00 | 0.00 | 0.00 | 51 | 1014.2 |
| 20260505011559 | 65 | 252 | 0.0 | 0.0 | 0.00 | 0.00 | 0.00 | 50 | 1014.2 |
| 20260505011058 | 65 | 252 | 0.0 | 0.0 | 0.00 | 0.00 | 0.00 | 50 | 1014.2 |
| 20260505010558 | 65 | 252 | 0.0 | 0.0 | 0.00 | 0.00 | 0.00 | 50 | 1014.2 |
| 20260505010058 | 65 | 252 | 0.0 | 0.0 | 0.00 | 0.00 | 0.00 | 50 | 1014.2 |
| 20260505005558 | 65 | 252 | 0.0 | 0.0 | 0.00 | 0.00 | 0.00 | 50 | 1014.2 |
| 20260505005058 | 65 | 252 | 0.0 | 0.0 | 0.00 | 0.00 | 0.00 | 50 | 1014.2 |
| 20260505004604 | 65 | 252 | 0.0 | 0.0 | 0.00 | 0.00 | 0.00 | 50 | 1014.1 |
| 20260505004057 | 65 | 253 | 0.0 | 0.0 | 0.00 | 0.00 | 0.00 | 50 | 1014.1 |
| 20260505003557 | 65 | 253 | 0.0 | 0.0 | 0.00 | 0.00 | 0.00 | 50 | 1014.1 |
| 20260505003057 | 65 | 254 | 0.0 | 0.0 | 0.00 | 0.00 | 0.00 | 50 | 1014.0 |
| 20260505002557 | 66 | 254 | 0.0 | 0.0 | 0.00 | 0.00 | 0.00 | 50 | 1014.0 |
| 20260505002057 | 66 | 254 | 0.0 | 0.0 | 0.00 | 0.00 | 0.00 | 50 | 1014.0 |